Ana Sayfa
METAR-TAF:

METAR-TAF

Havaalanları :

Jim Hogg County Airport

Hebbronville, Teksas, Amerika Birleşik Devletleri

Enlem: 27-20N, Boylam: 098-44W, yükseklik: 202 m

Güncel hava durumu gözlemi

Rapor saat 18:50 UTC de 18 dakika önce yapıldı.
Sakin rüzgar
Sıcaklık 11°C
Nem 82%
Basınç 1022 hPa
Görüş mesafesi: 16.1 km
4400 ft yükseklikte çok bulutlu

METAR: KHBV 101850Z AUTO 00000KT 10SM OVC044 11/08 A3017 RMK AO2 T01120077

Saat: 13:08 (19:08 UTC)


TAF: eksik

4.000'den fazla havaalanı için hava durumu gözlemleri ve tahminleri (METAR ve TAF raporları).

Kullanılabilir istasyonlar harita üzerinde sarı ve kırmızı noktalarla gösterilir.

İstasyonun adını görmek için fareyi noktanın üzerinde gezdirin.

Sonrasında hava gözlem ve tahminlerini görmek için tıklayın.

Haritayı değiştirmek için: yaklaştırmak için siyah artı işaretli yeşil düğmeye ve uzaklaştırmak için de eksi işaretli düğmeye hızla tıklayın; bitişik haritalar için yeşil okları kullanın.


METAR-TAF: